Content
SEND FEEDBACK

Daily
Averages
Monthly
Summary
United States of America

JACKSONVILLE, ALABAMA


Home > North America > United States > Alabama
Elevation: 769 feet     Latitude: 33 45N     Longitude: 085 47W

WEATHER
 
SELECT A DAY
Number of Records: 203,107;   Date Range: 1/1/95 - 7/28/14
 
SHARE

PRINT THIS DATA

[ ← Previous Day ]
WEATHER ALMANAC - FEBRUARY 13, 2013
[ Next Day → ]
[ °C ]   °F
Weather ElementAverageHighLow
Temperature45.9 °F48.9 °F (6:53 am)35.1 °F (10:53 pm)
Dewpoint40.6 °F48.2 °F (7:04 am)34 °F (8:53 pm)
Humidity82.7 %100 % (4:05 am)66 % (5:17 pm)
Barometer29.89 in30.05 in (9:53 pm)29.75 in (3:53 am)
Wind Speed8.6 mph17.3 mph (8:53 am)
Wind Gust25.3 mph (11:53 am)
Weather ElementAverage
Visibility8.4 mi
Wind DirectionSSW (190.3 °)

Weather ElementTotal
Precipitation0.02 in
Heating Degree Days23 (Base 65)
Averaged from 32 records on February 13, 2013
WEATHER CONDITIONS BREAKOUT
WIND DIRECTION BREAKOUT
WEATHER BY HOUR - FEBRUARY 13, 2013
[ °C ]   °F
Local TimeTemperatureDewpointHumidityBarometerVisibilityWind DirectionWind SpeedGust SpeedPrecipitationEventsConditions
1:53 AM46.0 °F45.0 °F96 %29.78 in4.0 miENE (60°)8.1 mphOvercast
2:53 AM46.9 °F45.0 °F93 %29.76 in7.0 miNE (50°)10.4 mphOvercast
3:53 AM46.9 °F45.0 °F93 %29.75 in5.0 miNE (40°)6.9 mphOvercast
4:05 AM46.4 °F46.4 °F100 %29.75 in2.0 miNE (40°)5.8 mphOvercast
4:33 AM46.4 °F46.4 °F100 %29.75 in2.0 miCalm0.01 inOvercast
4:53 AM46.9 °F46.0 °F97 %29.78 in2.0 miCalm0.01 inOvercast
6:53 AM48.9 °F48.0 °F97 %29.79 in8.0 miSW (230°)10.4 mph19.6 mphOvercast
7:04 AM48.2 °F48.2 °F100 %29.82 in4.0 miWSW (240°)16.1 mph24.2 mphOvercast
7:36 AM48.2 °F46.4 °F93 %29.79 in10.0 miWSW (250°)9.2 mphOvercast
7:53 AM48.9 °F46.9 °F93 %29.83 in10.0 miWSW (250°)10.4 mphOvercast
8:53 AM48.9 °F45.0 °F86 %29.85 in10.0 miWSW (250°)17.3 mph21.9 mphOvercast
9:20 AM48.2 °F42.8 °F82 %29.86 in10.0 miWSW (250°)17.3 mph24.2 mphOvercast
9:53 AM48.0 °F42.1 °F80 %29.88 in10.0 miWest (260°)15.0 mphOvercast
10:53 AM48.0 °F42.1 °F80 %29.88 in10.0 miWest (270°)13.8 mph20.7 mphOvercast
11:53 AM48.0 °F39.9 °F74 %29.87 in10.0 miWest (260°)13.8 mph25.3 mphOvercast
12:53 PM48.0 °F39.9 °F74 %29.88 in10.0 miWSW (250°)16.1 mphOvercast
1:53 PM48.0 °F39.9 °F74 %29.88 in10.0 miWest (260°)8.1 mphOvercast
2:22 PM48.2 °F39.2 °F71 %29.87 in10.0 miWest (270°)9.2 mphOvercast
2:53 PM48.9 °F39.0 °F69 %29.89 in10.0 miWSW (250°)12.7 mph21.9 mphOvercast
3:00 PM48.2 °F39.2 °F71 %29.88 in10.0 miWest (260°)15.0 mph21.9 mphOvercast
3:53 PM48.0 °F39.0 °F71 %29.92 in10.0 miNW (310°)11.5 mph18.4 mphOvercast
4:34 PM46.4 °F37.4 °F71 %29.93 in10.0 miNW (310°)8.1 mph20.7 mphOvercast
4:53 PM46.0 °F36.0 °F68 %29.96 in10.0 miWNW (300°)9.2 mph17.3 mphOvercast
5:17 PM46.4 °F35.6 °F66 %29.95 in10.0 miNW (310°)4.6 mphOvercast
5:35 PM44.6 °F35.6 °F71 %29.96 in10.0 miWNW (300°)6.9 mphOvercast
5:53 PM45.0 °F36.0 °F71 %29.98 in10.0 miWNW (290°)6.9 mphOvercast
6:53 PM44.1 °F36.0 °F73 %30.00 in10.0 miVariable3.5 mphOvercast
7:53 PM43.0 °F35.1 °F74 %30.00 in10.0 miWNW (300°)4.6 mphScattered Clouds
8:53 PM37.9 °F34.0 °F86 %30.03 in10.0 miCalmClear
9:53 PM36.0 °F34.0 °F93 %30.05 in9.0 miCalmClear
10:53 PM35.1 °F34.0 °F96 %30.05 in7.0 miCalmMostly Cloudy
11:53 PM39.9 °F35.1 °F83 %30.05 in10.0 miSW (230°)3.5 mphOvercast
Hourly data recorded from KANB, located miles away from Jacksonville, Alabama







STORIES FROM OUR PARTNERS